Location: El Dieciséis
(32.4721°N, 116.6080°W)
Time: 05:56:27
(UTC+00:00)

ARIANE 6 FM1 Upper Stage - Pass Details

Date: 17 August 2024
Orbit: 566 x 594 km, 62.0° (Epoch: 19 September)

Event Time Altitude Azimuth Distance (km) Brightness Sun altitude
Rises 12:34:23 0° 193° (SSW) 2,766 5.9 -8.4°
Reaches altitude 10° 12:36:42 10° 185° (S) 1,877 5.1 -7.9°
Maximum altitude 12:40:38 38° 117° (ESE) 889 4.1 -7.1°
Drops below altitude 10° 12:44:38 10° 48° (NE) 1,906 6.7 -6.3°
Sets 12:47:00 0° 41° (NE) 2,815 7.4 -5.9°
